TimeCST,TemperatureF,Dew PointF,Humidity,Sea Level PressureIn,VisibilityMPH,Wind Direction,Wind SpeedMPH,Gust SpeedMPH,PrecipitationIn,Events,Conditions,WindDirDegrees,DateUTC
12:53 AM,30.0,28.9,96,30.03,2.5,ESE,13.8,-,0.00,Rain,Light Freezing Rain,110,2014-02-04 06:53:00
1:16 AM,30.2,28.4,93,29.98,3.0,ESE,11.5,-,0.00,Rain,Light Freezing Rain,110,2014-02-04 07:16:00
1:53 AM,30.0,28.9,96,30.01,3.0,East,11.5,-,0.00,Rain,Light Freezing Rain,100,2014-02-04 07:53:00
2:17 AM,30.2,28.4,93,29.96,3.0,East,8.1,-,0.00,Snow,Light Snow,100,2014-02-04 08:17:00
2:28 AM,30.2,28.4,93,29.96,2.0,East,9.2,-,0.01,Snow,Light Snow,90,2014-02-04 08:28:00
2:53 AM,30.0,28.9,96,29.99,3.0,East,6.9,-,0.01,,Overcast,80,2014-02-04 08:53:00
3:04 AM,30.2,28.4,93,29.96,2.5,ENE,5.8,-,0.00,Snow,Light Snow,70,2014-02-04 09:04:00
3:30 AM,30.2,28.4,93,29.95,3.0,ENE,5.8,-,0.00,,Overcast,70,2014-02-04 09:30:00
3:53 AM,30.0,28.9,96,29.97,3.0,ENE,5.8,-,0.00,,Overcast,60,2014-02-04 09:53:00
4:03 AM,30.2,28.4,93,29.93,3.0,ENE,4.6,-,0.00,Rain,Light Freezing Rain,70,2014-02-04 10:03:00
4:15 AM,30.2,28.4,93,29.93,2.5,ENE,4.6,-,0.00,,Overcast,60,2014-02-04 10:15:00
4:45 AM,30.2,28.4,93,29.91,1.5,East,6.9,-,0.00,Snow,Light Snow,90,2014-02-04 10:45:00
4:53 AM,30.0,28.9,96,29.94,1.8,East,5.8,-,0.00,Snow,Light Snow,80,2014-02-04 10:53:00
5:21 AM,30.2,28.4,93,29.90,2.0,East,5.8,-,0.01,Snow,Light Snow,80,2014-02-04 11:21:00
5:33 AM,30.2,28.4,93,29.89,2.0,East,5.8,-,0.01,Snow,Light Snow,80,2014-02-04 11:33:00
5:53 AM,30.0,28.9,96,29.94,2.5,East,9.2,-,0.01,Snow,Light Snow,100,2014-02-04 11:53:00
6:09 AM,30.2,28.4,93,29.89,1.8,East,9.2,-,0.00,Snow,Light Snow,90,2014-02-04 12:09:00
6:53 AM,30.0,30.0,100,29.93,1.8,ESE,5.8,-,0.01,Snow,Light Snow,120,2014-02-04 12:53:00
7:40 AM,30.2,28.4,93,29.90,1.2,ESE,6.9,-,0.01,Snow,Light Snow,120,2014-02-04 13:40:00
7:53 AM,30.0,28.9,96,29.93,1.2,ESE,5.8,-,0.01,Snow,Light Snow,120,2014-02-04 13:53:00
8:36 AM,30.2,28.4,93,29.91,2.5,SE,4.6,-,0.00,,Overcast,130,2014-02-04 14:36:00
8:43 AM,30.2,30.2,100,29.90,3.0,East,4.6,-,0.00,,Overcast,100,2014-02-04 14:43:00
8:50 AM,30.2,28.4,93,29.88,2.5,East,10.4,-,0.00,,Overcast,80,2014-02-04 14:50:00
8:53 AM,30.0,28.9,96,29.91,2.5,East,12.7,-,0.00,Snow,Light Snow,80,2014-02-04 14:53:00
9:08 AM,30.2,28.4,93,29.89,1.5,ESE,6.9,-,0.00,Snow,Light Snow,110,2014-02-04 15:08:00
9:18 AM,30.2,28.4,93,29.89,0.5,East,6.9,-,0.01,Fog-Snow,Snow,100,2014-02-04 15:18:00
9:53 AM,30.9,30.0,96,29.94,0.8,SE,3.5,-,0.04,Snow,Light Snow,140,2014-02-04 15:53:00
10:00 AM,30.2,30.2,100,29.90,0.5,SE,4.6,-,0.00,Fog-Snow,Snow,140,2014-02-04 16:00:00
10:06 AM,30.2,30.2,100,29.90,0.8,SE,3.5,-,0.00,Snow,Light Snow,140,2014-02-04 16:06:00
10:30 AM,30.2,30.2,100,29.90,1.0,Calm,Calm,-,0.01,Snow,Light Snow,0,2014-02-04 16:30:00
10:46 AM,32.0,30.2,93,29.90,1.5,Calm,Calm,-,0.01,Snow,Light Snow,0,2014-02-04 16:46:00
10:53 AM,32.0,30.9,96,29.94,1.5,Calm,Calm,-,0.01,Snow,Light Snow,0,2014-02-04 16:53:00
11:03 AM,33.8,30.2,87,29.89,2.0,Calm,Calm,-,0.00,Snow,Light Snow,0,2014-02-04 17:03:00
11:16 AM,32.0,30.2,93,29.90,4.0,Calm,Calm,-,0.00,,Overcast,0,2014-02-04 17:16:00
11:53 AM,32.0,28.9,88,29.93,8.0,SW,5.8,-,0.00,,Overcast,230,2014-02-04 17:53:00
12:03 PM,32.0,28.4,87,29.89,9.0,SW,6.9,-,N/A,,Overcast,230,2014-02-04 18:03:00
12:28 PM,32.0,28.4,87,29.87,8.0,WSW,8.1,-,N/A,,Overcast,250,2014-02-04 18:28:00
12:41 PM,32.0,28.4,87,29.86,8.0,West,5.8,-,N/A,,Overcast,270,2014-02-04 18:41:00
12:53 PM,33.1,28.9,85,29.89,8.0,WSW,6.9,-,N/A,,Overcast,250,2014-02-04 18:53:00
1:25 PM,32.0,28.4,87,29.84,4.0,NNE,8.1,-,N/A,,Overcast,20,2014-02-04 19:25:00
1:53 PM,32.0,30.0,92,29.88,4.0,North,3.5,-,N/A,,Overcast,350,2014-02-04 19:53:00
2:07 PM,32.0,30.2,93,29.85,3.0,NNW,3.5,-,N/A,,Overcast,330,2014-02-04 20:07:00
2:22 PM,32.0,28.4,87,29.85,4.0,North,4.6,-,N/A,,Overcast,350,2014-02-04 20:22:00
2:31 PM,30.2,28.4,93,29.85,3.0,North,6.9,-,N/A,,Overcast,350,2014-02-04 20:31:00
2:53 PM,32.0,30.0,92,29.88,4.0,North,5.8,-,N/A,,Overcast,350,2014-02-04 20:53:00
3:26 PM,32.0,28.4,87,29.86,5.0,North,8.1,-,N/A,,Overcast,350,2014-02-04 21:26:00
3:53 PM,32.0,28.9,88,29.91,6.0,North,10.4,-,N/A,,Overcast,350,2014-02-04 21:53:00
4:15 PM,32.0,28.4,87,29.88,7.0,NNW,11.5,-,N/A,,Overcast,340,2014-02-04 22:15:00
4:53 PM,32.0,28.0,85,29.94,9.0,NW,11.5,-,N/A,,Overcast,320,2014-02-04 22:53:00
5:53 PM,30.9,27.0,85,30.00,7.0,NNW,15.0,-,N/A,,Overcast,340,2014-02-04 23:53:00
6:24 PM,30.2,26.6,86,29.98,10.0,NNW,13.8,-,N/A,,Overcast,340,2014-02-05 00:24:00
6:53 PM,30.0,26.1,85,30.05,10.0,NNW,12.7,-,N/A,,Overcast,330,2014-02-05 00:53:00
7:53 PM,28.9,24.1,82,30.10,10.0,NNW,12.7,-,N/A,,Mostly Cloudy,340,2014-02-05 01:53:00
8:53 PM,28.0,24.1,85,30.15,9.0,NNW,17.3,26.5,N/A,,Overcast,340,2014-02-05 02:53:00
9:22 PM,26.6,21.2,80,30.13,10.0,NNW,20.7,28.8,N/A,,Overcast,330,2014-02-05 03:22:00
9:53 PM,25.0,19.0,78,30.20,10.0,North,23.0,31.1,N/A,,Overcast,350,2014-02-05 03:53:00
10:53 PM,23.0,17.1,78,30.25,10.0,North,25.3,33.4,N/A,,Overcast,350,2014-02-05 04:53:00
11:53 PM,21.9,17.1,82,30.28,10.0,North,25.3,32.2,0.00,,Overcast,360,2014-02-05 05:53:00